Weather History for Mount Holly, NJ

Change the Weather History Date:

Monday, January 21, 2013

  Actual Average (KWRI) Record (KWRI)
Temperature  
Mean Temperature 30 °F -  
Max Temperature 35 °F 35 °F 62 °F (2006)
Min Temperature 26 °F 20 °F 6 °F (2005)
Degree Days  
Heating Degree Days 34    
Moisture  
Dew Point 16 °F    
Average Humidity 61    
Maximum Humidity 93    
Minimum Humidity 38    
Precipitation  
Precipitation 0.00 in - - ()
Sea Level Pressure  
Sea Level Pressure 29.97 in    
Wind  
Wind Speed 6 mph (NW)    
Max Wind Speed 14 mph    
Max Gust Speed 21 mph    
Visibility 8 miles    
Events Fog , Snow    
Averages and records for this station are not official NWS values.
T = Trace of Precipitation, MM = Missing Value Source: NWS Daily Summary

Daily Weather History Graph

Daily Weather History Graph

Search for Another Location

Airport:

Trip Planner

Search our weather history database for the weather conditions in past years. The results will help you decide how hot, cold, wet, or windy it might be!

Date:

Astronomy

Jan. 21, 2013 Rise Set
Actual Time 7:16 AM EST 5:05 PM EST
Civil Twilight 6:46 AM EST 5:35 PM EST
Nautical Twilight 6:13 AM EST 6:08 PM EST
Astronomical Twilight 5:41 AM EST 6:40 PM EST
Moon 12:44 PM EST (1/21) 2:42 AM EST (1/21)
Length of Visible Light 10h 48m
Length of Day
9h 49m
Waxing Gibbous, 75% of the Moon is Illuminated
Jan 21
Waxing Gibbous
Jan 26
Full
Feb 3
Last Quarter
Feb 10
New
Feb 17
First Quarter

Hourly Weather History & Observations

Time (EST) Temp. Windchill Dew Point Humidity Pressure Visibility Wind Dir Wind Speed Gust Speed Precip Events Conditions
12:54 AM 30.9 °F 22.2 °F 9.0 °F 40% 30.09 in 10.0 mi NW 10.4 mph - N/A   Clear
1:54 AM 30.0 °F 22.4 °F 10.0 °F 43% 30.11 in 10.0 mi NW 8.1 mph - N/A   Clear
2:54 AM 28.9 °F 22.8 °F 10.0 °F 45% 30.12 in 10.0 mi NW 5.8 mph - N/A   Clear
3:54 AM 28.0 °F - 10.0 °F 47% 30.12 in 10.0 mi Calm Calm - N/A   Clear
4:54 AM 28.0 °F 24.2 °F 10.9 °F 49% 30.11 in 10.0 mi NNW 3.5 mph - N/A   Clear
5:54 AM 27.0 °F 21.6 °F 10.0 °F 49% 30.10 in 10.0 mi NNW 4.6 mph - N/A   Clear
6:54 AM 27.0 °F 20.5 °F 9.0 °F 47% 30.11 in 10.0 mi NNW 5.8 mph - N/A   Clear
7:54 AM 27.0 °F - 10.0 °F 49% 30.12 in 10.0 mi Calm Calm - N/A   Scattered Clouds
8:54 AM 27.0 °F - 8.1 °F 45% 30.12 in 10.0 mi Calm Calm - N/A   Overcast
9:54 AM 28.9 °F - 9.0 °F 43% 30.11 in 10.0 mi Calm Calm - N/A   Overcast
10:54 AM 30.0 °F 25.2 °F 9.0 °F 41% 30.09 in 10.0 mi SSE 4.6 mph - N/A   Overcast
11:54 AM 32.0 °F 28.7 °F 10.9 °F 42% 30.04 in 10.0 mi Variable 3.5 mph - N/A   Overcast
12:54 PM 32.0 °F 27.5 °F 9.0 °F 38% 30.00 in 10.0 mi SW 4.6 mph - N/A   Overcast
1:54 PM 34.0 °F 28.8 °F 12.9 °F 42% 29.97 in 10.0 mi South 5.8 mph - N/A   Overcast
2:54 PM 34.0 °F 31.0 °F 15.1 °F 46% 29.92 in 10.0 mi South 3.5 mph - N/A   Overcast
3:54 PM 35.1 °F 31.0 °F 15.1 °F 44% 29.88 in 10.0 mi Variable 4.6 mph - N/A   Overcast
4:54 PM 35.1 °F 32.2 °F 12.9 °F 40% 29.88 in 10.0 mi Variable 3.5 mph - N/A   Overcast
5:54 PM 30.9 °F 26.2 °F 19.0 °F 61% 29.88 in 10.0 mi North 4.6 mph - N/A   Overcast
6:54 PM 32.0 °F 25.6 °F 19.0 °F 59% 29.86 in 10.0 mi North 6.9 mph - 0.00 in Snow Light Snow
7:33 PM 30.2 °F 20.8 °F 21.2 °F 69% 29.88 in 3.0 mi NNW 11.5 mph - 0.00 in Snow Light Snow
7:54 PM 28.9 °F 22.8 °F 21.9 °F 75% 29.88 in 3.0 mi NNW 5.8 mph - 0.00 in Snow Light Snow
8:02 PM 28.4 °F 19.7 °F 23.0 °F 80% 29.89 in 1.8 mi NW 9.2 mph - 0.00 in Snow Light Snow
8:06 PM 28.4 °F 21.2 °F 24.8 °F 86% 29.89 in 0.8 mi NW 6.9 mph - 0.00 in Snow Light Snow
8:18 PM 26.6 °F 19.1 °F 24.8 °F 93% 29.90 in 0.5 mi NNW 6.9 mph - 0.00 in Fog , Snow Snow
8:27 PM 26.6 °F 20.0 °F 24.8 °F 93% 29.90 in 0.8 mi NNW 5.8 mph - 0.00 in Snow Light Snow
8:32 PM 26.6 °F 17.5 °F 24.8 °F 93% 29.88 in 1.2 mi North 9.2 mph - 0.00 in Snow Light Snow
8:43 PM 26.6 °F 19.1 °F 24.8 °F 93% 29.89 in 2.0 mi North 6.9 mph - 0.00 in Snow Light Snow
8:54 PM 27.0 °F 21.6 °F 25.0 °F 92% 29.90 in 5.0 mi NNW 4.6 mph - 0.00 in Snow Light Snow
9:03 PM 26.6 °F 20.0 °F 24.8 °F 93% 29.90 in 7.0 mi NNW 5.8 mph - 0.00 in   Overcast
9:54 PM 28.0 °F 21.7 °F 23.0 °F 81% 29.88 in 10.0 mi NNW 5.8 mph - 0.00 in   Overcast
10:54 PM 28.0 °F 20.8 °F 19.0 °F 69% 29.89 in 10.0 mi NW 6.9 mph - N/A   Scattered Clouds
11:54 PM 27.0 °F 15.6 °F 10.9 °F 51% 29.89 in 9.0 mi NW 13.8 mph 20.7 mph N/A   Clear